Home   Weather   Arviat   Past weeks

Flag for Canada Past Weather in Arviat, Nunavut, Canada — Yesterday and Last 2 Weeks

Now
12 °F

Light snow. Low clouds.


Feels Like: -5 °F
Forecast: -7 / 8 °F
Wind: 17 mph from North

Location: Arviat Airport

Current Time: Jan 17, 2017 at 7:57:30 pm

Latest Report: Jan 17, 2017 at 7:17 pm


Visibility: 9 mi

Pressure: 29.06 "Hg

Humidity: 92%

Dew Point: 10 °F

Location of ArviatLocation

Past Weather in Arviat — Graph

°F

Arviat Temperature Yesterday

Maximum temperature yesterday: 12 °F (at 9:03 pm)
Minimum temperature yesterday: -29 °F (at 12:00 am)
Average temperature yesterday: -4 °F

High & Low Weather Summary for the Past Weeks

 TemperatureHumidityPressure
High18 °F (Jan 17, 3:01 am)93% (Jan 17, 2:00 am)30.27 "Hg (Jan 17, 2:00 am)
Low-38 °F (Jan 10, 4:00 am)59% (Jan 9, 11:00 am)29.00 "Hg (Jan 17, 5:00 pm)
Average-18 °F72%29.91 "Hg
* Reported Jan 2 7:00 pm — Jan 17 7:00 pm, Arviat, Weather by CustomWeather, © 2017

Note: Actual official high and low records may vary slightly from our data, if they occured in-between our weather recording intervals... More about our weather records

Advertising

Arviat Weather History for the Previous 24 Hours

Scroll right to see more
 ConditionsComfort  
Time TempWeatherWind HumidityBarometerVisibility
7:00 pm
Tue, Jan 17
14 °FLight snow. Overcast.20 mph85%29.05 "Hg9 mi
6:00 pm14 °FPassing clouds.16 mph85%29.02 "Hg9 mi
5:00 pm14 °FOvercast.17 mph92%29.00 "Hg15 mi
4:00 pm14 °FOvercast.14 mph85%29.00 "Hg15 mi
3:00 pm12 °FMostly cloudy.9 mph92%29.01 "Hg15 mi
2:00 pm10 °FOvercast.7 mph92%29.00 "Hg15 mi
1:00 pm9 °FOvercast.6 mph85%29.01 "Hg15 mi
12:00 pm9 °FOvercast.8 mph85%29.01 "Hg15 mi
11:00 am7 °FOvercast.8 mph85%29.04 "Hg15 mi
10:00 am5 °FOvercast.6 mph92%29.04 "Hg15 mi
9:00 am7 °FMostly cloudy.3 mph92%29.07 "Hg15 mi
8:00 am7 °FPassing clouds.12 mph85%29.08 "Hg15 mi
7:00 am5 °FOvercast.12 mph85%29.11 "Hg15 mi
6:33 am5 °FClear.13 mph92%29.11 "Hg9 mi
6:08 am7 °FLight snow. Clear.14 mph92%29.11 "Hg9 mi
5:53 am7 °FClear.12 mph85%29.12 "Hg9 mi
5:30 am9 °FLight snow. Clear.14 mph85%29.14 "Hg6 mi
5:17 am9 °FLight snow. Clear.13 mph92%29.15 "Hg2 mi
5:02 am10 °FLight snow. Clear.15 mph92%29.15 "Hg2 mi
4:30 am14 °FLight snow. Passing clouds.22 mph85%29.16 "Hg5 mi
4:00 am14 °FPassing clouds.16 mph92%29.18 "Hg9 mi
3:01 am18 °FIce fog.18 mph93%29.19 "Hg6 mi
2:26 am16 °FIce fog.23 mph93%29.19 "Hg5 mi
2:00 am16 °FPassing clouds.20 mph93%29.23 "Hg9 mi
1:17 am14 °FIce fog.18 mph92%29.25 "Hg6 mi
1:00 am14 °FIce fog.20 mph92%29.26 "Hg4 mi
12:50 am14 °FIce fog.22 mph92%29.26 "Hg3 mi
12:29 am14 °FLight snow. Clear.22 mph92%29.27 "Hg3 mi
12:00 am14 °FLight snow. Clear.24 mph92%29.28 "Hg1 mi
11:35 pm
Mon, Jan 16
12 °FLight snow. Clear.23 mph92%29.31 "Hg1 mi
11:00 pm12 °FLight snow. Clear.24 mph92%29.33 "Hg1 mi
10:51 pm12 °FLight snow. Clear.25 mph92%29.34 "Hg1 mi
10:40 pm12 °FLight snow. Clear.24 mph92%29.34 "Hg1 mi
10:09 pm12 °FLight snow. Clear.25 mph92%29.36 "Hg1 mi
9:47 pm12 °FLight snow. Passing clouds.24 mph92%29.39 "Hg1 mi
9:27 pm12 °FLight snow. Passing clouds.28 mph85%29.39 "Hg1 mi
9:03 pm12 °FLight snow. Passing clouds.26 mph85%29.39 "Hg1 mi
8:00 pm10 °FLight snow. Low clouds.28 mph85%29.45 "Hg1 mi
7:00 pm9 °FLight snow. Overcast.30 mph85%29.51 "Hg1 mi
Weather by CustomWeather, © 2017

See weather overviewHow to use our weather pages